This is the latest recevied weather packets stored in our database for station/object WZ9ZZZ-1. If no packets are shown the sender has not sent any weather packets the latest 10 day(s).
| Time | Temp. | Humidity | Pressure | Rain* | Wind** | Luminosity | Snow |
|---|---|---|---|---|---|---|---|
| 1777391816 | 28.89° C | 77% | 1018.4 hPa | 0 mm | - | 605 W/m² | - |
| 1777391512 | 29.44° C | 76% | 1018.3 hPa | 0 mm | - | 604 W/m² | - |
| 1777391209 | 28.89° C | 77% | 1018.4 hPa | 0 mm | - | 607 W/m² | - |
| 1777390905 | 28.89° C | 77% | 1018.1 hPa | 0 mm | - | 580 W/m² | - |
| 1777390602 | 28.33° C | 79% | 1018.2 hPa | 0 mm | - | 575 W/m² | - |
| 1777390298 | 28.89° C | 78% | 1018.4 hPa | 0 mm | - | 549 W/m² | - |
| 1777389994 | 28.33° C | 78% | 1018.3 hPa | 0 mm | - | 557 W/m² | - |
| 1777389691 | 28.33° C | 77% | 1018.2 hPa | 0 mm | - | 544 W/m² | - |
| 1777389387 | 28.33° C | 77% | 1018.2 hPa | 0 mm | - | 515 W/m² | - |
| 1777389086 | 27.78° C | 78% | 1017.9 hPa | 0 mm | - | 516 W/m² | - |
| 1777388783 | 28.33° C | 79% | 1018.3 hPa | 0 mm | - | 439 W/m² | - |
| 1777388480 | 28.33° C | 79% | 1018.5 hPa | 0 mm | - | 439 W/m² | - |
| 1777388174 | 28.33° C | 80% | 1018.1 hPa | 0 mm | - | 453 W/m² | - |
| 1777387870 | 27.22° C | 80% | 1018 hPa | 0 mm | - | 366 W/m² | - |
| 1777387567 | 27.22° C | 80% | 1018.1 hPa | 0 mm | - | 212 W/m² | - |
| 1777387263 | 27.78° C | 80% | 1018.1 hPa | 0 mm | - | 323 W/m² | - |
| 1777386957 | 27.78° C | 80% | 1018 hPa | 0 mm | - | 339 W/m² | - |
| 1777386655 | 27.78° C | 81% | 1017.8 hPa | 0 mm | - | 379 W/m² | - |
| 1777386352 | 27.22° C | 81% | 1017.9 hPa | 0 mm | - | 369 W/m² | - |
| 1777386050 | 27.22° C | 81% | 1018.1 hPa | 0 mm | - | 337 W/m² | - |
| 1777385746 | 27.22° C | 82% | 1018.2 hPa | 0 mm | - | 311 W/m² | - |
| 1777385443 | 27.22° C | 82% | 1018.3 hPa | 0 mm | - | 298 W/m² | - |
| 1777385139 | 27.22° C | 83% | 1018.1 hPa | 0 mm | - | 233 W/m² | - |
| 1777384835 | 26.67° C | 84% | 1017.8 hPa | 0 mm | - | 194 W/m² | - |
| 1777384532 | 26.67° C | 85% | 1018 hPa | 0 mm | - | 173 W/m² | - |
* Rain latest hour (hover to see other rain measurements)
** Current wind speed in m/s (hover to see current wind gust speed)